Theta_e
309 309 309 309 310 311 312 313 314 314 313 315 314 313 313 315 312 312 312 312 312 312 313 313 312 313 316 318 317 315 320 321 320 318 319 314 315 311 309 312 310 311 310 307 306
309 309 308 308 308 308 309 310 312 313 313 313 314 315 314 314 315 313 312 312 312 312 312 314 315 315 318 318 318 320 320 319 318 316 317 315 315 315 313 313 312 311 307 303 302
311 311 310 309 308 308 307 308 309 311 312 312 314 314 313 315 316 316 312 311 311 312 312 312 313 317 319 318 317 317 320 317 316 315 314 315 314 313 314 315 316 316 314 305 303
312 312 311 311 310 309 308 307 308 309 311 311 313 314 313 314 317 313 312 311 311 312 312 312 314 317 319 319 316 319 315 315 316 314 313 314 313 313 314 317 314 314 312 306 305
313 313 312 312 311 309 308 308 307 308 310 311 313 314 313 316 316 313 312 311 310 312 312 314 317 317 320 317 315 317 316 314 314 313 313 311 314 314 313 314 312 308 307 307 306
313 312 312 312 312 310 309 308 307 307 309 310 313 313 315 316 313 314 313 311 309 311 311 313 316 314 316 317 316 315 314 315 314 314 313 313 315 311 316 311 311 308 309 308 307
314 313 312 312 312 311 309 308 307 307 308 311 313 313 315 315 312 314 312 310 309 310 313 310 312 315 314 315 312 312 316 316 314 313 314 312 315 314 315 307 310 308 308 308 307
313 313 312 312 311 311 309 308 307 307 310 312 313 314 316 313 312 313 310 309 309 310 310 310 310 312 313 311 313 316 315 319 315 313 312 312 319 319 315 309 312 312 309 307 306
312 312 312 311 310 310 309 307 307 309 312 312 313 315 316 312 312 312 310 310 309 309 310 310 312 314 313 318 319 317 318 317 316 313 312 313 319 317 310 310 312 313 312 308 306
311 311 310 310 309 308 308 306 308 311 312 312 313 316 313 314 312 312 309 309 310 312 314 315 315 318 316 318 316 316 317 317 317 314 312 314 315 316 315 310 312 314 314 311 307
310 310 310 309 307 308 307 308 311 310 310 315 314 315 312 312 313 311 308 309 311 312 314 315 317 318 317 317 316 315 316 317 318 311 312 315 315 315 315 314 313 312 313 312 309
311 310 309 307 309 308 307 310 310 307 310 309 307 307 309 313 314 312 308 312 312 314 314 315 316 316 315 315 315 316 318 319 318 310 310 314 313 313 313 313 313 313 313 313 310
312 310 310 307 309 306 307 308 309 309 313 311 309 310 311 311 314 314 309 311 313 313 314 315 315 312 314 315 315 316 318 318 317 312 308 308 313 312 311 309 310 310 311 311 309
312 311 310 307 307 310 308 307 308 308 308 308 308 311 312 312 312 307 307 311 312 314 313 315 313 313 314 316 315 318 315 314 314 314 318 309 318 316 314 312 310 313 314 309 307
314 312 311 308 310 310 307 306 307 304 310 307 308 308 310 312 309 309 305 309 313 312 313 315 313 313 315 315 313 317 307 310 309 312 310 315 314 314 307 310 311 313 313 311 308
315 314 312 310 311 310 308 306 306 306 305 307 311 312 314 310 309 307 308 307 308 313 312 314 308 310 314 305 307 306 309 308 306 310 316 315 315 313 312 311 311 312 313 309 306
316 314 312 311 312 308 308 307 307 305 304 307 312 311 312 313 311 310 310 311 313 315 316 314 313 308 307 312 307 308 314 318 320 320 318 309 310 311 311 311 311 313 313 307 305
318 314 313 311 310 311 305 310 306 308 307 309 311 310 314 312 312 311 310 313 310 311 313 316 315 310 309 314 317 311 316 319 321 317 316 306 311 312 310 311 311 306 308 303 303
319 313 312 312 310 311 306 309 306 307 307 307 311 313 313 312 311 312 312 313 313 311 315 315 315 305 304 305 307 309 313 312 318 311 315 315 315 312 309 308 306 305 305 305 304
315 312 312 313 310 310 307 307 306 306 305 309 308 311 310 311 311 313 313 312 313 310 312 313 315 308 299 302 300 306 306 313 313 321 321 315 315 315 313 310 309 308 307 308 304
315 313 313 313 309 312 311 308 307 305 305 307 308 307 308 309 312 310 311 310 311 311 309 312 315 310 303 306 310 305 308 306 307 311 317 317 314 311 310 309 309 309 309 310 305
314 316 310 310 313 312 311 312 307 306 305 306 306 307 307 307 308 311 310 310 310 309 311 311 314 317 314 302 301 304 309 310 313 314 311 314 315 305 310 309 308 308 308 307 305
315 314 307 310 317 313 312 312 310 309 307 306 306 307 307 306 306 308 309 309 308 310 311 309 315 319 315 304 299 306 305 307 310 311 314 316 314 310 310 310 307 307 308 306 305
315 314 308 308 312 314 315 315 313 309 311 306 305 305 306 306 306 308 309 308 309 309 310 310 315 316 314 313 308 309 307 306 308 313 314 313 313 312 311 311 310 310 308 306 306
315 314 308 308 310 312 314 315 317 313 308 308 307 307 308 308 308 307 308 308 306 307 309 310 313 313 314 312 311 310 310 309 307 309 311 311 311 311 310 310 310 310 309 309 308
312 315 307 311 310 310 311 314 316 317 314 310 310 311 307 308 310 317 310 308 308 303 306 306 312 312 312 311 311 312 312 312 312 312 311 310 309 309 308 308 309 309 308 308 307
305 306 309 312 311 311 311 311 313 314 314 313 312 311 312 309 309 309 309 308 309 310 309 307 309 311 314 312 311 311 311 310 310 310 310 311 311 310 310 310 310 309 309 308 306
Wind_Speed
12 13 14 15 16 16 17 18 18 19 19 16 10 3 2 4 3 5 5 4 4 2 3 8 4 6 4 3 1 1 3 4 3 5 2 6 8 4 1 4 5 6 3 2 19
12 12 13 14 16 16 17 17 17 17 17 17 10 5 6 6 6 8 6 5 3 2 3 7 6 9 4 3 1 3 3 4 2 3 2 4 8 6 6 7 7 8 9 6 25
11 13 14 14 15 17 17 18 18 17 16 16 11 6 4 5 3 4 10 5 2 1 1 2 5 3 4 3 3 2 3 2 4 6 4 3 5 6 7 11 13 15 13 16 25
12 13 14 15 16 17 18 19 19 19 16 15 10 7 1 3 5 4 9 5 2 3 4 3 3 3 4 5 3 4 4 4 1 4 3 4 3 5 14 18 1 9 8 21 22
13 13 15 16 18 18 20 20 21 21 18 16 8 3 2 3 7 5 8 5 4 3 3 3 3 4 4 4 4 5 5 5 4 4 6 3 10 9 14 16 11 6 11 18 20
15 15 15 17 18 20 20 21 22 22 20 15 6 4 3 7 3 5 7 5 5 4 2 1 2 2 2 3 5 3 4 6 5 7 5 7 5 3 8 5 13 13 16 17 21
17 18 17 17 18 19 21 21 22 23 21 11 5 6 3 10 4 5 6 5 4 4 3 2 3 1 3 1 1 1 6 5 11 6 5 5 10 12 19 7 10 14 15 16 19
17 19 19 18 18 20 21 22 23 22 14 5 4 5 6 4 6 5 6 5 4 4 6 5 5 5 1 3 0 3 3 5 6 8 3 6 11 14 5 9 15 16 15 16 20
17 19 20 19 18 20 22 23 23 15 4 3 4 4 6 2 4 7 8 5 7 6 6 6 3 2 3 3 6 4 11 9 4 10 5 11 16 6 2 8 15 17 16 17 17
15 18 20 17 16 18 21 22 12 2 2 3 2 3 3 3 4 6 7 11 3 6 3 2 2 4 3 7 13 15 9 9 11 5 9 11 22 23 16 13 21 24 20 19 18
14 16 19 19 14 14 19 6 4 2 1 5 2 3 1 2 5 4 5 7 4 3 7 1 7 17 17 17 17 11 11 19 18 4 5 15 21 23 21 19 24 25 23 21 20
15 15 17 18 12 9 6 2 1 1 8 6 6 7 5 4 3 5 9 9 7 11 7 4 16 20 6 8 10 11 14 22 15 3 8 15 21 22 24 26 24 24 24 19 16
13 14 16 16 7 4 3 2 1 0 5 6 4 4 2 9 6 6 13 4 5 9 13 16 11 3 8 9 10 13 19 18 12 4 8 10 15 10 9 12 15 21 22 17 16
10 12 15 12 1 5 2 1 0 1 5 5 4 2 2 2 4 1 5 2 4 9 8 10 4 9 10 11 13 14 8 13 11 6 12 2 17 13 15 15 11 21 18 13 15
10 10 12 8 5 0 1 1 2 2 8 1 3 1 2 3 4 1 1 1 7 7 6 5 4 7 10 8 12 5 1 2 2 8 7 13 10 9 2 7 16 18 19 12 12
14 11 9 7 3 4 2 0 1 4 10 3 3 4 4 2 2 1 2 2 1 4 5 8 1 4 3 3 1 6 1 3 2 4 10 20 18 3 5 7 8 16 15 9 10
19 16 12 7 2 4 4 2 4 9 4 6 5 5 3 6 6 8 7 8 7 5 10 4 8 3 3 4 3 5 2 6 7 6 15 2 7 14 15 13 16 19 15 5 8
22 21 20 16 6 6 4 4 14 6 12 3 3 4 8 11 7 9 7 8 11 4 1 5 12 12 9 10 4 10 6 6 14 15 26 6 10 10 8 15 21 6 11 2 6
24 26 19 25 15 10 4 10 11 10 8 8 3 4 7 4 4 7 12 8 10 19 13 8 10 2 1 2 1 7 7 3 7 1 10 13 19 7 9 13 7 14 9 14 12
20 15 18 26 24 12 6 24 10 9 6 5 18 14 14 13 10 11 12 6 6 16 11 4 14 4 4 3 2 4 4 4 3 8 19 23 28 18 14 15 13 12 13 14 9
17 3 13 31 26 5 12 13 12 10 9 10 15 13 13 12 13 9 12 3 8 6 11 4 9 5 5 11 14 5 5 4 2 4 10 21 11 5 4 4 9 13 10 10 8
4 4 22 37 7 4 12 9 5 8 8 13 5 14 20 16 14 12 15 13 11 10 12 8 3 10 18 2 1 1 10 14 9 10 11 11 32 8 8 6 6 3 6 6 10
3 2 18 24 8 9 10 12 9 11 12 13 15 12 14 18 10 15 19 7 10 11 11 9 2 7 16 5 0 8 8 12 16 16 32 11 31 13 12 12 8 11 13 8 15
4 3 3 5 6 16 21 18 15 11 21 10 6 10 4 10 14 12 22 9 11 13 8 10 8 14 21 16 1 7 12 17 22 17 19 26 38 42 29 30 31 25 17 17 17
4 6 8 5 14 17 15 9 21 14 12 12 7 20 21 15 17 23 24 18 8 6 5 13 14 19 28 35 23 25 24 27 28 29 24 36 26 36 35 30 30 25 21 29 25
4 3 3 6 17 25 23 18 27 28 16 14 20 21 24 25 24 24 26 23 19 2 6 4 18 24 32 32 27 26 27 32 33 36 28 28 32 35 37 37 32 38 29 28 25
6 7 5 5 11 16 23 30 30 28 23 27 25 22 20 29 33 33 21 7 6 12 15 13 9 11 23 26 20 12 35 30 39 34 32 30 36 33 36 34 31 32 23 23 24
Wind_Direction
15 15 14 13 13 12 11 12 13 12 11 13 5 305 260 331 290 243 242 216 197 201 170 157 130 147 141 108 54 251 229 238 230 193 155 159 201 155 158 191 208 206 258 76 163
9 9 6 5 3 3 2 2 3 4 3 3 358 334 258 296 308 258 255 211 204 233 182 187 162 159 146 127 139 237 250 233 198 213 232 194 219 188 200 198 222 226 208 157 166
355 352 355 356 356 354 354 353 353 354 354 352 345 337 274 275 298 227 193 207 226 222 245 176 129 189 159 175 162 166 257 199 234 234 234 232 221 196 230 232 231 221 205 181 181
341 342 342 343 347 347 347 346 345 344 344 344 337 327 289 203 251 189 185 195 205 178 152 151 171 189 171 189 173 211 226 223 242 204 194 228 158 221 226 246 250 237 201 183 189
329 329 333 337 340 342 341 339 338 337 334 335 321 291 145 227 257 205 198 207 194 191 159 189 192 182 226 181 179 222 191 213 248 219 231 255 242 255 247 248 232 219 193 195 200
330 324 323 326 332 336 334 334 333 330 327 325 299 222 169 243 230 210 208 208 211 183 161 200 208 176 156 211 227 173 242 250 247 240 236 235 248 224 246 239 231 223 221 212 209
330 326 322 321 323 326 328 329 328 323 322 310 264 199 213 259 212 206 203 210 219 201 149 106 118 228 138 220 71 301 289 261 223 213 237 208 267 233 249 192 232 227 231 225 219
325 325 321 318 319 321 322 326 323 319 316 286 211 180 252 231 209 207 172 141 127 119 123 119 116 101 348 131 214 254 247 250 151 172 173 193 277 241 223 213 243 241 229 221 221
323 324 321 319 316 318 319 325 318 315 304 182 169 202 257 212 199 196 187 161 133 103 92 110 82 94 164 232 264 225 273 240 270 207 153 208 283 235 204 232 260 253 238 228 226
321 324 322 315 315 317 321 325 315 306 138 146 121 236 183 215 167 175 175 160 139 132 136 181 150 229 198 207 264 282 259 252 259 186 217 222 257 272 267 252 260 266 256 242 229
317 323 325 323 325 327 334 339 300 208 165 223 194 267 205 136 162 190 165 142 131 177 205 118 227 238 247 235 266 277 264 267 267 201 240 255 261 275 283 274 262 269 262 251 239
329 319 325 329 331 329 342 41 133 338 300 238 245 274 230 177 218 202 168 188 183 213 150 183 240 254 270 250 231 242 258 264 279 220 214 273 271 277 271 269 268 267 265 255 247
333 328 323 333 336 351 25 124 165 346 247 283 219 231 207 181 228 198 179 165 199 201 205 232 248 88 190 214 208 233 239 259 257 304 228 286 271 244 261 259 274 264 259 256 234
311 330 328 338 27 349 353 359 197 188 260 242 216 224 125 183 239 24 191 191 199 240 196 244 278 233 223 240 201 246 240 250 266 284 275 8 290 277 273 255 258 273 269 235 223
279 311 330 348 308 157 195 330 307 236 277 57 176 107 119 202 109 79 163 161 210 181 180 221 188 199 219 240 180 248 100 195 220 253 302 255 267 271 173 255 260 260 271 232 226
257 273 293 326 245 214 192 276 306 235 243 231 153 175 155 178 150 128 138 42 29 181 235 255 187 227 217 96 184 134 164 197 181 251 256 260 235 243 197 212 244 256 262 212 197
250 248 245 267 217 170 174 163 230 232 19 193 198 180 210 186 196 184 169 180 192 183 220 197 224 169 183 167 141 188 208 290 263 242 267 123 261 265 281 244 239 252 263 176 189
244 235 235 233 247 220 158 162 234 190 210 76 128 140 200 166 216 183 169 211 230 215 181 229 259 184 182 224 221 185 211 222 275 287 289 98 251 273 240 253 252 292 264 209 205
237 220 218 222 209 176 191 217 229 204 186 181 110 207 217 232 224 178 210 216 208 189 204 195 252 126 147 93 254 153 200 343 290 143 285 254 257 234 197 240 243 252 247 251 232
212 200 218 206 194 160 200 236 224 199 155 176 224 199 228 219 196 195 193 188 229 202 210 211 277 150 112 149 88 211 124 135 214 277 274 278 294 284 242 237 237 248 245 250 220
215 206 201 195 170 178 215 229 240 216 187 192 231 246 239 236 215 217 238 212 205 192 200 173 213 218 147 201 188 164 196 204 294 241 271 287 276 157 173 164 213 232 232 253 248
207 232 168 162 189 190 223 197 217 236 219 249 250 251 246 231 238 248 246 227 180 151 168 207 182 250 241 145 198 249 228 207 226 232 234 266 271 171 167 194 245 228 257 262 247
206 199 184 177 207 213 230 241 240 235 220 211 229 224 230 245 250 249 257 213 171 171 183 169 187 254 264 213 236 218 204 232 240 255 250 226 264 230 271 260 244 257 267 245 243
218 214 171 218 244 210 219 232 232 213 240 235 225 213 216 241 218 243 242 230 194 206 151 164 188 225 244 252 355 204 226 231 223 235 251 238 256 275 273 277 282 279 273 252 246
229 202 177 192 221 234 232 216 231 235 207 217 238 229 225 241 252 250 259 248 211 203 181 165 235 243 252 256 256 266 262 252 237 235 242 256 259 267 276 276 277 283 286 278 275
276 233 202 204 210 216 228 221 229 238 213 214 221 220 221 229 216 244 235 239 228 177 216 202 237 224 240 248 255 255 254 251 257 257 254 255 264 264 269 275 279 273 273 272 277
322 338 298 187 216 218 215 222 230 237 238 233 222 227 223 227 229 233 257 273 201 229 229 229 229 239 246 246 251 238 238 246 256 261 257 261 254 264 267 263 264 271 280 274 266